Stations météo

réclame
Mon MeteoGroup
Threave, Grande-Bretagne (99090): Température de l'air & dewpoint: 16.02.2018 03:00:00 - 22.02.2018 03:00:00 (GMT)Threave, Grande-Bretagne (99090): Température de l'air -20cm & Température de l'air -100cm: 16.02.2018 03:00:00 - 22.02.2018 03:00:00 (GMT)Threave, Grande-Bretagne (99090): Quantités de précipitations: 16.02.2018 03:00:00 - 22.02.2018 03:00:00 (GMT)
Date & Time tt [°C] td [°C] tt -20cm [°C] tt -100cm [°C] rr [mm]
22.02.2018 03:00:00 - - - - -
22.02.2018 02:00:00 -1,3 -1,7 - - 0,0
22.02.2018 01:00:00 -0,3 -0,6 - - 0,0
22.02.2018 00:00:00 -0,4 -0,6 - - 0,0
21.02.2018 23:00:00 -1,2 -1,7 - - 0,0
21.02.2018 22:00:00 -1,1 -1,6 - - 0,0
21.02.2018 21:00:00 -0,3 -1,0 - - 0,0
21.02.2018 20:00:00 0,6 -0,2 - - 0,0
21.02.2018 19:00:00 1,1 -0,6 - - 0,0
21.02.2018 18:00:00 2,7 0,0 - - 0,0
21.02.2018 17:00:00 6,5 0,3 - - 0,0
21.02.2018 16:00:00 8,3 -1,9 - - 0,0
21.02.2018 15:00:00 8,5 -1,6 - - 0,0
21.02.2018 14:00:00 8,8 -0,7 - - 0,0
21.02.2018 13:00:00 7,7 0,9 - - 0,0
21.02.2018 12:00:00 6,8 2,3 - - 0,0
21.02.2018 11:00:00 4,1 2,0 - - 0,0
21.02.2018 10:00:00 3,3 3,3 - - 0,0
21.02.2018 09:00:00 -0,1 -0,2 4,7 5,7 0,0
21.02.2018 08:00:00 -1,5 -1,7 - - 0,0
21.02.2018 07:00:00 -1,2 -1,4 - - 0,0
21.02.2018 06:00:00 -0,8 -1,1 - - 0,0
21.02.2018 05:00:00 0,2 -0,1 - - 0,0
21.02.2018 04:00:00 0,3 0,1 - - 0,0
21.02.2018 03:00:00 -0,2 -0,5 - - 0,0
21.02.2018 02:00:00 -0,8 -1,2 - - 0,0
21.02.2018 01:00:00 -0,2 -0,7 - - 0,0
21.02.2018 00:00:00 0,6 0,2 - - 0,0
20.02.2018 23:00:00 0,9 0,4 - - 0,0
20.02.2018 22:00:00 1,3 0,6 - - 0,0
20.02.2018 21:00:00 2,0 1,2 - - 0,0
20.02.2018 20:00:00 3,6 1,9 - - 0,0
20.02.2018 19:00:00 4,8 2,5 - - 0,0
20.02.2018 18:00:00 6,4 3,3 - - 0,0
20.02.2018 17:00:00 7,7 3,3 - - 0,0
20.02.2018 16:00:00 9,1 3,8 - - 0,0
20.02.2018 15:00:00 9,6 3,7 - - 0,0
20.02.2018 14:00:00 9,5 3,8 - - 0,0
20.02.2018 13:00:00 8,9 3,4 - - 0,0
20.02.2018 12:00:00 8,7 3,9 - - 0,0
20.02.2018 11:00:00 7,9 3,9 - - 0,0
20.02.2018 10:00:00 7,0 3,7 - - 0,0
20.02.2018 09:00:00 5,6 3,4 5,2 5,4 0,0
20.02.2018 08:00:00 4,3 3,0 - - 0,0
20.02.2018 07:00:00 4,3 2,4 - - 0,0
20.02.2018 06:00:00 3,5 1,9 - - 0,0
20.02.2018 05:00:00 4,8 2,8 - - 0,0
20.02.2018 04:00:00 5,1 2,8 - - 0,0
20.02.2018 03:00:00 6,4 3,1 - - 0,0
20.02.2018 02:00:00 5,7 3,5 - - 0,0
20.02.2018 01:00:00 6,6 3,8 - - 0,0
20.02.2018 00:00:00 7,4 5,4 - - 0,2
19.02.2018 23:00:00 8,3 7,5 - - 0,0
19.02.2018 22:00:00 8,4 7,4 - - 0,0
19.02.2018 21:00:00 8,0 7,1 - - 0,0
19.02.2018 20:00:00 7,9 7,1 - - 0,0
19.02.2018 19:00:00 8,0 6,8 - - 0,0
19.02.2018 18:00:00 8,7 7,1 - - 0,0
19.02.2018 17:00:00 9,7 7,2 - - 0,0
19.02.2018 16:00:00 11,2 8,6 - - 0,0
19.02.2018 15:00:00 11,1 8,6 - - 0,0
19.02.2018 14:00:00 11,3 9,3 - - 0,0
19.02.2018 13:00:00 12,1 9,4 - - 0,0
19.02.2018 12:00:00 11,8 9,5 - - 0,0
19.02.2018 11:00:00 11,7 9,7 - - 0,0
19.02.2018 10:00:00 9,8 9,3 - - 0,0
19.02.2018 09:00:00 9,0 8,8 4,7 5,2 0,0
19.02.2018 08:00:00 8,9 8,8 - - 0,0
19.02.2018 07:00:00 8,6 8,5 - - 0,0
19.02.2018 06:00:00 8,4 8,3 - - 0,0
19.02.2018 05:00:00 8,3 8,2 - - 0,0
19.02.2018 04:00:00 8,3 8,2 - - 0,2
19.02.2018 03:00:00 7,6 7,5 - - 0,4
19.02.2018 02:00:00 7,3 7,2 - - 0,0
19.02.2018 01:00:00 6,6 6,4 - - 0,0
19.02.2018 00:00:00 6,4 6,2 - - 0,0
18.02.2018 23:00:00 6,3 6,1 - - 0,4
18.02.2018 22:00:00 6,2 6,0 - - 0,8
18.02.2018 21:00:00 6,2 5,9 - - 0,6
18.02.2018 20:00:00 6,4 6,0 - - 1,0
18.02.2018 19:00:00 6,0 5,6 - - 1,2
18.02.2018 18:00:00 5,9 5,5 - - 1,0
18.02.2018 17:00:00 5,8 5,2 - - 0,8
18.02.2018 16:00:00 5,8 5,0 - - 0,2
18.02.2018 15:00:00 5,9 4,5 - - 0,0
18.02.2018 14:00:00 6,0 4,5 - - 0,0
18.02.2018 13:00:00 6,0 4,6 - - 0,0
18.02.2018 12:00:00 5,8 4,6 - - 0,0
18.02.2018 11:00:00 5,7 4,9 - - 0,0
18.02.2018 10:00:00 4,8 4,6 - - 0,2
18.02.2018 09:00:00 4,8 4,6 4,0 5,0 0,2
18.02.2018 08:00:00 4,6 4,5 - - 0,0
18.02.2018 07:00:00 4,6 4,6 - - 0,0
18.02.2018 06:00:00 4,4 4,4 - - 0,0
18.02.2018 05:00:00 3,8 3,7 - - 0,0
18.02.2018 04:00:00 3,6 3,5 - - 0,0
18.02.2018 03:00:00 3,2 3,1 - - 0,0
18.02.2018 02:00:00 2,5 2,4 - - 0,0
18.02.2018 01:00:00 1,9 1,8 - - 0,0
18.02.2018 00:00:00 1,7 1,5 - - 0,0
17.02.2018 23:00:00 2,0 1,8 - - 0,0
17.02.2018 22:00:00 1,3 0,8 - - 0,0
17.02.2018 21:00:00 2,9 2,4 - - 0,0
17.02.2018 20:00:00 3,7 3,3 - - 0,0
17.02.2018 19:00:00 3,9 3,5 - - 0,0
17.02.2018 18:00:00 5,0 3,9 - - 0,0
17.02.2018 17:00:00 5,6 4,0 - - 0,0
17.02.2018 16:00:00 6,1 3,8 - - 0,0
17.02.2018 15:00:00 7,8 4,3 - - 0,0
17.02.2018 14:00:00 7,3 4,9 - - 0,0
17.02.2018 13:00:00 7,3 4,4 - - 0,0
17.02.2018 12:00:00 6,2 4,4 - - 0,0
17.02.2018 11:00:00 5,8 4,6 - - 0,0
17.02.2018 10:00:00 5,5 4,4 - - 0,0
17.02.2018 09:00:00 4,8 4,2 3,7 5,0 0,0
17.02.2018 08:00:00 3,8 3,0 - - 0,0
17.02.2018 07:00:00 4,2 3,5 - - 0,0
17.02.2018 06:00:00 4,2 3,7 - - 0,0
17.02.2018 05:00:00 5,1 4,7 - - 0,6
17.02.2018 04:00:00 4,6 4,0 - - 2,4
17.02.2018 03:00:00 4,5 3,7 - - 2,4
17.02.2018 02:00:00 4,8 4,0 - - 1,0
17.02.2018 01:00:00 5,2 4,3 - - 3,4
17.02.2018 00:00:00 5,1 3,9 - - 1,4
16.02.2018 23:00:00 5,4 3,6 - - 0,4
16.02.2018 22:00:00 5,8 3,2 - - 0,0
16.02.2018 21:00:00 5,6 3,5 - - 0,4
16.02.2018 20:00:00 6,3 3,7 - - 0,0
16.02.2018 19:00:00 6,0 4,1 - - 0,0
16.02.2018 18:00:00 6,0 4,4 - - 0,0
16.02.2018 17:00:00 6,3 4,3 - - 0,0
16.02.2018 16:00:00 6,9 3,9 - - 0,0
16.02.2018 15:00:00 7,7 3,8 - - 0,0
16.02.2018 14:00:00 7,7 4,1 - - 0,0
16.02.2018 13:00:00 7,7 3,4 - - 0,0
16.02.2018 12:00:00 6,3 3,2 - - 0,0
16.02.2018 11:00:00 6,4 3,2 - - 0,0
16.02.2018 10:00:00 5,0 2,9 - - 0,0
16.02.2018 09:00:00 3,1 2,0 3,2 5,2 0,0
16.02.2018 08:00:00 1,2 0,2 - - 0,0
16.02.2018 07:00:00 0,9 -0,1 - - 0,0
16.02.2018 06:00:00 1,6 0,2 - - 0,0
16.02.2018 05:00:00 2,2 0,3 - - 0,0
16.02.2018 04:00:00 2,3 0,1 - - 0,0
16.02.2018 03:00:00 2,0 0,0 - - 0,0

tt = Température de l'air
td = dewpoint
tt -20cm = Température de l'air -20cm
tt -100cm = Température de l'air -100cm
rr = Quantités de précipitations

stations d'obs. à proximité